Paducah, KY

4:33 PM CST on December 17, 2017 (GMT -0600)
Barkley Regional

Weather History for KPAH - March, 2013

Change the Weather History Date:

Friday, March 22, 2013

  Actual Average Record
Temperature  
Mean Temperature 38 °F 50 °F  
Max Temperature 42 °F 61 °F 84 °F (1938)
Min Temperature 34 °F 39 °F 20 °F (1968)
Degree Days  
Heating Degree Days 27 15  
Month to date heating degree days 526 401  
Since 1 July heating degree days 3637 3697  
Cooling Degree Days 0 0  
Month to date cooling degree days 0 0  
Year to date cooling degree days 0 0  
Moisture  
Dew Point 23 °F    
Average Humidity 53    
Maximum Humidity 61    
Minimum Humidity 45    
Precipitation  
Precipitation T in 0.13 in 1.68 in (1991)
Month to date precipitation 2.46 2.68  
Year to date precipitation 14.21 10.27  
Snow  
Snow T in 0.10 in 2.00 in (1968)
Month to date snowfall 0.6 0.6  
Since 1 July snowfall 6.7 9.1  
Snow Depth 0.00 in    
Sea Level Pressure  
Sea Level Pressure 30.01 in    
Wind  
Wind Speed 7 mph (East)    
Max Wind Speed 10 mph    
Max Gust Speed 13 mph    
Visibility 10 miles    
Events      
T = Trace of Precipitation, MM = Missing Value Source: NWS Daily Summary

Daily Weather History Graph

Daily Weather History Graph

Search for Another Location

Airport or City:

Trip Planner

Search our weather history database for the weather conditions in past years. The results will help you decide how hot, cold, wet, or windy it might be!

Date:

Astronomy

Mar. 22, 2013 Rise Set
Actual Time 6:55 AM CDT 7:08 PM CDT
Civil Twilight 6:29 AM CDT 7:34 PM CDT
Nautical Twilight 5:59 AM CDT 8:05 PM CDT
Astronomical Twilight 5:28 AM CDT 8:36 PM CDT
Moon 2:41 PM CDT (3/22) 3:49 AM CDT (3/22)
Length of Visible Light 13h 05m
Length of Day
12h 13m
Waxing Gibbous, 77% of the Moon is Illuminated
Mar 22
Waxing Gibbous
Mar 27
Full
Apr 2
Last Quarter
Apr 10
New
Apr 18
First Quarter

Hourly Weather History & Observations

Time (CDT) Temp. Windchill Dew Point Humidity Pressure Visibility Wind Dir Wind Speed Gust Speed Precip Events Conditions
12:53 AM 35.1 °F 27.9 °F 19.9 °F 54% 30.03 in 10.0 mi East 9.2 mph - N/A   Overcast
1:53 AM 34.0 °F 27.2 °F 21.0 °F 59% 30.03 in 10.0 mi East 8.1 mph - N/A   Overcast
2:53 AM 34.0 °F 28.0 °F 21.0 °F 59% 30.02 in 10.0 mi ENE 6.9 mph - N/A   Overcast
3:53 AM 34.0 °F 28.0 °F 21.0 °F 59% 30.01 in 10.0 mi East 6.9 mph - N/A   Overcast
4:53 AM 34.0 °F 28.0 °F 21.9 °F 61% 30.00 in 10.0 mi ESE 6.9 mph - N/A   Overcast
5:53 AM 34.0 °F 28.0 °F 19.9 °F 56% 30.01 in 10.0 mi East 6.9 mph - N/A   Overcast
6:53 AM 35.1 °F 30.1 °F 21.0 °F 57% 30.02 in 10.0 mi East 5.8 mph - N/A   Overcast
7:53 AM 35.1 °F 31.0 °F 21.9 °F 59% 30.03 in 10.0 mi East 4.6 mph - N/A   Overcast
8:53 AM 36.0 °F 30.3 °F 21.9 °F 57% 30.03 in 10.0 mi East 6.9 mph - N/A   Overcast
9:53 AM 37.0 °F 31.6 °F 23.0 °F 57% 30.04 in 10.0 mi NE 6.9 mph - N/A   Overcast
10:53 AM 37.9 °F 33.5 °F 23.0 °F 55% 30.03 in 10.0 mi East 5.8 mph - N/A   Overcast
11:53 AM 39.9 °F 35.1 °F 23.0 °F 51% 30.04 in 10.0 mi East 6.9 mph - N/A   Overcast
12:53 PM 39.9 °F 35.8 °F 23.0 °F 51% 30.04 in 10.0 mi East 5.8 mph - N/A   Overcast
1:53 PM 39.9 °F 35.8 °F 24.1 °F 53% 30.01 in 10.0 mi East 5.8 mph - N/A   Overcast
2:53 PM 41.0 °F 35.8 °F 24.1 °F 51% 29.99 in 10.0 mi East 8.1 mph - N/A   Overcast
3:53 PM 42.1 °F 37.1 °F 24.1 °F 49% 29.98 in 10.0 mi East 8.1 mph - N/A   Overcast
4:53 PM 42.1 °F 37.7 °F 23.0 °F 47% 29.98 in 10.0 mi ENE 6.9 mph - N/A   Overcast
5:53 PM 42.1 °F 37.7 °F 24.1 °F 49% 29.99 in 10.0 mi ENE 6.9 mph - N/A   Overcast
6:53 PM 41.0 °F 35.8 °F 24.1 °F 51% 29.99 in 10.0 mi ENE 8.1 mph - N/A   Overcast
7:53 PM 41.0 °F 35.8 °F 24.1 °F 51% 30.00 in 10.0 mi ENE 8.1 mph - N/A   Overcast
8:53 PM 41.0 °F 37.1 °F 25.0 °F 53% 30.00 in 10.0 mi East 5.8 mph - N/A   Overcast
9:53 PM 41.0 °F 37.1 °F 25.0 °F 53% 30.01 in 10.0 mi ENE 5.8 mph - N/A   Overcast
10:53 PM 41.0 °F 37.1 °F 25.0 °F 53% 30.01 in 10.0 mi East 5.8 mph - N/A   Overcast
11:53 PM 41.0 °F 35.2 °F 25.0 °F 53% 30.00 in 10.0 mi East 9.2 mph - N/A   Overcast